Regional Weather Roundup
Issued by NWS Wakefield, VA

Home | Current Version | Previous Version | Graphics & Text | Print | Product List | Glossary On
Versions: 1 2 3 4 5 6 7 8 9 10 11 12 13 14 15 16 17 18 19 20 21 22 23 24 25 26 27
000
ASUS41 KAKQ 250015
RWRAKQ

REGIONAL WEATHER ROUNDUP
NATIONAL WEATHER SERVICE WAKEFIELD VA
800 PM EDT FRI MAR 24 2017

Note: "fair" indicates few or no clouds below 12,000 feet with no
significant weather and/or obstructions to visibility. * = Denotes
station may not report precipitation (e.g., rain,snow,etc.),
thunder or fog.

VAZ042-051-052>054-056-250100-
NORTHERN VIRGINIA

CITY           SKY/WX    TMP DP  RH WIND       PRES   REMARKS
WASH NATIONAL  CLOUDY    58  41  53 S9        30.17F
DULLES         MOCLDY    59  39  47 S9        30.15F
FORT BELVOIR   CLOUDY    60  42  50 S5        30.16F
QUANTICO       CLOUDY    59  46  62 SW9       30.19F
FREDERICKSBRG* CLOUDY    65  47  52 SW9       30.19S
STAFFORD*      CLOUDY    63  45  51 S3        30.23S
WARRENTON      CLOUDY    64  41  42 S9        30.18S
CULPEPER*      CLOUDY    64  46  53 S7        30.19S
MANASSAS*      CLOUDY    60  42  51 S7        30.17F
LEESBURG*      CLEAR     61  43  51 S9        30.15F
WINCHESTER     CLOUDY    57  37  47 S5        30.13S
FRONT ROYAL*     N/A    N/A N/A N/A MISG        N/A
LURAY*         CLEAR     63  43  48 SW8       30.16S
$$

VAZ048-049-060>072-079>083-250100-
CENTRAL AND SOUTH CENTRAL VIRGINIA

CITY           SKY/WX    TMP DP  RH WIND       PRES   REMARKS
RICHMOND       CLOUDY    65  47  52 SW15      30.25R
CHESTERFIELD*  FAIR      64  37  36 S8        30.28R
PETERSBURG*    CLEAR     64  45  51 S5        30.28R
HANOVER        CLOUDY    66  45  46 SW15G22   30.25S
TAPPAHANNOCK*  CLOUDY    65  32  29 S9        30.23S
QUINTON*       FAIR      65  47  52 SW8       30.25R
CHARLOTTSVILLE CLEAR     66  44  45 SW9       30.21S
GORDONSVILLE*  CLEAR     64  47  54 SW10      30.21R
ORANGE*        CLOUDY    63  45  51 SW14      30.22S
LOUISA*        CLOUDY    68  50  52 S7        30.21S
BUMPASS*       FAIR      65  47  52 SW7       30.22S
FARMVILLE*     CLEAR     66  47  51 S9        30.25S
CREWE*         FAIR      64  47  53 SW7       30.27S
FORT PICKETT*  FAIR      60  40  48 S9        30.28R
CHASE CITY*    FAIR      63  45  50 CALM      30.30R
CLARKSVILLE*   FAIR      63  46  55 SW3       30.30R
SOUTH HILL*    CLEAR     63  48  59 S8        30.35S
LAWRENCEVILLE* FAIR      64  46  53 S7        30.29R
EMPORIA*       CLEAR     63  45  51 SE5       30.31S
$$

VAZ088>098-250100-
SOUTHEAST VIRGINIA

CITY           SKY/WX    TMP DP  RH WIND       PRES   REMARKS
NORFOLK        CLEAR     65  44  46 SW15      30.28S
VIRGINIA BEACH PTCLDY    64  43  46 SW10      30.28F
NORFOLK NAVAL  PTCLDY    66  44  45 SW10      30.29S
WEST POINT*    CLOUDY    64  45  48 S8        30.27R
SALUDA*        FAIR      64  47  53 SW8       30.24S
NEWPORT NEWS   CLEAR     63  46  54 SW14      30.28R
LANGLEY AFB    CLEAR     65  47  52 SW12      30.27S
FORT EUSTIS    CLEAR     63  47  55 S6        30.25R
WILLIAMSBURG*  CLEAR     66  48  52 SW3       30.28R
HR EXEC AP*    FAIR      64  45  48 SW10      30.27F
FRANKLIN*      CLEAR     64  45  49 SW9       30.31R
US460-WAKEFLD  CLEAR     64  47  53 SW7       30.29R
$$

VAZ020-022-025-037-045-250100-
WEST CENTRAL AND SOUTHWEST VIRGINIA

CITY           SKY/WX    TMP DP  RH WIND       PRES   REMARKS
STAUNTON*      CLEAR     61  42  50 S9        30.23R
WAYNESBORO*    CLEAR     61  44  53 S9        30.22S
HOT SPRINGS VA CLOUDY    55  36  47 S7        30.29R
LYNCHBURG      CLEAR     62  45  53 S12       30.28R
DANVILLE       CLEAR     62  46  55 S3        30.30R
SOUTH BOSTON*  FAIR      64  44  47 SW3       30.30R
MARTINSVILLE   CLEAR     62  44  51 S3        30.32S
ROANOKE        PTCLDY    65  45  48 S9        30.27R
BLACKSBURG     CLEAR     62  46  56 S7        30.31R
DUBLIN*        CLEAR     63  46  54 S9        30.29R
MARION*        CLEAR     63  45  51 CALM      30.30R
HILLSVILLE*    CLEAR     58  48  69 S9G16     30.30R
RICHLANDS*     FAIR      64  46  53 CALM      30.27R
WISE*          PTCLDY    63  45  51 CALM      30.28S
ABINGDON*      CLOUDY    68  46  44 W6        30.26R
$$

MDZ021>025-VAZ099-100-250100-
SOUTHERN MARYLAND AND THE DELMARVA PENINSULA

CITY           SKY/WX    TMP DP  RH WIND       PRES   REMARKS
PATUXENT RIVER CLOUDY    64  47  53 S13       30.18F
BAY BRIDGE APT CLOUDY    55  39  54 S8        30.16F
LEONARDTOWN    PTCLDY    63  43  48 SW9G16    30.20F
DOVER          MOCLDY    57  40  52 S14       30.15F
GEORGETOWN     PTCLDY    59  38  45 SW12      30.19F
EASTON         MOCLDY    57  39  51 SW8       30.21F
CAMBRIDGE      CLEAR     54  43  66 S9        30.18F
SALISBURY      PTCLDY    56  42  59 S8        30.21F
OCEAN CITY     CLOUDY    50  42  74 MISG      30.23F
WALLOPS ISLAND CLOUDY    49  45  86 S13       30.25S
ACCOMACK*      CLEAR     53  45  74 S6        30.25S
$$

NCZ012>017-030>032-250100-
NORTH CENTRAL AND EASTERN NORTH CAROLINA

CITY           SKY/WX    TMP DP  RH WIND       PRES   REMARKS
ROANOKE RAPIDS FAIR      61  46  59 SW7       30.31S
RALEIGH        PTCLDY    65  46  50 SW10      30.32F
ELIZABETH CITY CLEAR     62  47  57 S9        30.33S
AHOSKIE*         N/A     62  46  55 CALM      30.32S
EDENTON*       CLEAR     64  49  57 S13       30.34S
CURRITUCK*     CLEAR     63  46  54 S5        30.32F
KILL DEVIL HLS NOT AVBL
MANTEO         CLEAR     58  48  69 SW17      30.36S
CAPE HATTERAS  CLEAR     60  51  72 SW9       30.39F
TARBORO*       NOT AVBL
GOLDSBORO      CLEAR     67  43  41 S6        30.32F
WASHINGTON     CLEAR     64  48  57 S8G18     30.35S
GREENVILLE     CLEAR     64  48  55 S12       30.35R
NEW BERN       CLEAR     62  50  64 S8        30.39S
WILMINGTON     CLEAR     63  52  67 SE5       30.40R
$$

VAZ048-250100-
ELSEWHERE

CITY           SKY/WX    TMP DP  RH WIND       PRES   REMARKS
HARRISBURG PA  MOCLDY    56  39  53 S8        30.12S
BALTIMORE      CLOUDY    59  38  45 SW9       30.15S
ANNAPOLIS      CLOUDY    61  39  44 VRB6      30.16F
ANDREWS AFB    CLOUDY    60  40  47 SW13      30.15F
PHILADELPHIA   MOCLDY    54  32  43 S10       30.16F
HENDERSON NC   CLEAR     61  44  53 S8        30.31R
GREENSBORO     PTCLDY    64  47  53 SW9       30.31S
ROCKY MOUNT    CLEAR     62  47  57 S5        30.33F
$$

VAZ100-250100-
MARINE

STATION/POSITION TIME  TEMP    WIND        PRES    WAVE   SWELL
                       AIR SEA DIR/SP/G            HT/PER HT/PER
                 (UTC) (F)     (DEG/KT/KT) (MB)    (FT/S) (FT/S)
CAPE MAY NJ      2348   49 44  160/ 10/ 13 1021.6F
LEWES DE         2348   55 43  200/  7/ 12 1021.9F
OCEAN-CITY-INLET 2348   46 43  220/ 14/ 16 1024.1F
WACHAPREAGUE VA  2348   52 50  230/  6/ 10 1024.2F
THOMAS POINT MD  0000   49 44  180/ 12/ 12   N/A
GOOSES REEF MD   0000   52 44  180/  8/ 10 1022.2    1/ 2
COVE POINT MD    2348   64     220/ 15/ 19 1022.3F
SOLOMONS ISLAND  2348   62 45  210/ 12/ 15   N/A
BISHOPS HEAD MD  2348   53 49  190/ 12/ 14 1023.0F
PINEY POINT MD   2342          230/  9/ 10   N/A
POTOMAC MD       0000   55 45  240/  8/  8 1022.1    1/ 2
CAMBRIDGE MD     2348   56 44  180/  6/  9 1021.3F
LEWISETTA VA     2348   64 48  230/ 10/ 13 1022.6F
RAPPAHANNOCK LGT 2342          200/ 19/ 19 1024.8R
STINGRAY PT      2350   56     220/ 12/ 14 1024.5F
YORK RVR RNG VA  2348   60     230/ 16/ 18 1024.1R
YORKTOWN VA      2348   65 47  220/ 10/ 15 1024.5R
JAMESTOWN VA     2350   64     200/  8/ 10   N/A
DOMINION TERM VA 2348   59     220/  9/ 10 1025.5S
KIPTOPEKE VA     2348      47  220/ 12/ 13   N/A
CHES BAY BRIDGE  2348   64 47  220/ 16/ 19 1025.0F
CAPE HENRY VA    2348   66     210/  8/ 13   N/A
WILLOUBY STN VA  2348   64     210/ 15/ 18 1026.0S
S CRANEY ISL VA  2348   65     220/  9/ 15 1025.2F
CAPE HENRY BUOY  2342      47                N/A     3/ 9
CAPE CHARLES BUO 2351      47                N/A     2/ 8
OFFSHORE WE BUOY 2351      46                N/A     3/ 3
64NM E OF VA BCH 2350   54 51  200/ 17/ 21 1026.4F   3/ 4   2/10
DUCK PIER NC     2348   59 48  190/ 14/ 17 1026.6F
44100 DUCK FRF   2305      49                N/A     3/10   2/11
44056 DUCK FRF   2330      50                N/A     2/ 8
OREGON INLET NC  2342   57 53  190/ 16/ 18 1028.0F
HATTERAS NC      2348   60 54  210/  9/ 12 1028.8F
DIAMOND SHLS NC  2350   66 74  210/ 16/ 19 1029.5F   4/10   3/10
CAPE LOOKOUT NC  2300   65     190/ 12/ 15 1029.2F
$$




USA.gov is the U.S. government's official web portal to all federal, state and local government web resources and services.